TimeEST,TemperatureF,Dew PointF,Humidity,Sea Level PressureIn,VisibilityMPH,Wind Direction,Wind SpeedMPH,Gust SpeedMPH,PrecipitationIn,Events,Conditions,WindDirDegrees,DateUTC
12:53 AM,33.1,25.0,72,30.10,10.0,West,4.6,-,N/A,,Overcast,280,2000-12-01 05:53:00
1:53 AM,33.1,24.1,70,30.12,10.0,West,5.8,-,N/A,,Mostly Cloudy,260,2000-12-01 06:53:00
2:53 AM,32.0,23.0,69,30.13,10.0,West,6.9,-,N/A,,Partly Cloudy,260,2000-12-01 07:53:00
3:53 AM,30.9,21.9,69,30.14,10.0,West,5.8,-,N/A,,Clear,270,2000-12-01 08:53:00
4:53 AM,32.0,23.0,69,30.15,10.0,West,3.5,-,N/A,,Overcast,270,2000-12-01 09:53:00
5:53 AM,32.0,24.1,73,30.17,10.0,WSW,5.8,-,N/A,,Overcast,240,2000-12-01 10:53:00
6:53 AM,32.0,23.0,69,30.18,10.0,West,5.8,-,N/A,,Overcast,260,2000-12-01 11:53:00
7:53 AM,32.0,24.1,73,30.19,10.0,WSW,6.9,-,N/A,,Overcast,250,2000-12-01 12:53:00
8:53 AM,33.1,23.0,66,30.19,10.0,West,5.8,-,N/A,,Overcast,270,2000-12-01 13:53:00
9:53 AM,35.1,23.0,61,30.20,10.0,NNW,5.8,-,N/A,,Mostly Cloudy,330,2000-12-01 14:53:00
11:53 AM,36.0,21.9,57,30.18,10.0,NNW,8.1,-,N/A,,Overcast,330,2000-12-01 16:53:00
12:53 PM,36.0,21.9,57,30.17,10.0,West,8.1,-,N/A,,Overcast,280,2000-12-01 17:53:00
1:53 PM,37.0,21.9,54,30.17,10.0,NNW,6.9,-,N/A,,Overcast,340,2000-12-01 18:53:00
2:53 PM,37.0,21.0,52,30.18,10.0,NNW,9.2,-,N/A,,Overcast,340,2000-12-01 19:53:00
3:53 PM,35.1,23.0,61,30.21,10.0,North,10.4,-,N/A,,Overcast,360,2000-12-01 20:53:00
4:53 PM,34.0,23.0,64,30.23,10.0,NNW,4.6,-,N/A,,Mostly Cloudy,340,2000-12-01 21:53:00
5:53 PM,32.0,23.0,69,30.24,10.0,NNW,3.5,-,N/A,,Scattered Clouds,330,2000-12-01 22:53:00
6:53 PM,30.9,19.0,61,30.25,10.0,NNW,6.9,-,N/A,,Clear,340,2000-12-01 23:53:00
7:53 PM,30.0,18.0,61,30.27,10.0,NNW,6.9,-,N/A,,Clear,340,2000-12-02 00:53:00
8:53 PM,28.0,16.0,61,30.29,10.0,North,9.2,-,N/A,,Clear,360,2000-12-02 01:53:00
9:53 PM,28.0,17.1,63,30.30,10.0,North,10.4,-,N/A,,Clear,350,2000-12-02 02:53:00
10:53 PM,28.0,17.1,63,30.31,10.0,North,8.1,-,N/A,,Mostly Cloudy,350,2000-12-02 03:53:00
11:53 PM,27.0,16.0,63,30.31,10.0,NNW,6.9,-,N/A,,Mostly Cloudy,330,2000-12-02 04:53:00